Time,TemperatureF,DewpointF,PressureIn,WindDirection,WindDirectionDegrees,WindSpeedMPH,WindSpeedGustMPH,Humidity,HourlyPrecipIn,Conditions,Clouds,dailyrainin,SolarRadiationWatts/m^2,SoftwareType,DateUTC
2013-07-31 00:12:00,84.0,76.0,-100.00,East,89,7.0,14.0,76,0.00,,,0.24,0.000000,,2013-07-31 04:12:00,
2013-07-31 00:22:00,84.0,76.0,-100.00,East,89,7.0,14.0,76,0.00,,,0.24,0.000000,,2013-07-31 04:22:00,
2013-07-31 00:32:00,84.0,76.0,-100.00,East,89,7.0,14.0,76,0.00,,,0.24,0.000000,,2013-07-31 04:32:00,
2013-07-31 01:02:00,83.0,75.0,-100.00,East,85,6.0,13.0,77,0.00,,,0.24,0.000000,,2013-07-31 05:02:00,
2013-07-31 01:12:00,83.0,75.0,-100.00,East,85,6.0,13.0,77,0.00,,,0.24,0.000000,,2013-07-31 05:12:00,
2013-07-31 01:22:00,83.0,75.0,-100.00,East,85,6.0,13.0,77,0.00,,,0.24,0.000000,,2013-07-31 05:22:00,
2013-07-31 01:32:00,83.0,75.0,-100.00,East,85,6.0,13.0,77,0.00,,,0.24,0.000000,,2013-07-31 05:32:00,
2013-07-31 02:02:00,83.0,74.0,-100.00,East,83,6.0,15.0,74,0.00,,,0.24,0.000000,,2013-07-31 06:02:00,
2013-07-31 02:12:00,83.0,74.0,-100.00,East,83,6.0,15.0,74,0.00,,,0.24,0.000000,,2013-07-31 06:12:00,
2013-07-31 02:22:00,83.0,74.0,-100.00,East,83,6.0,15.0,74,0.00,,,0.24,0.000000,,2013-07-31 06:22:00,
2013-07-31 02:32:00,83.0,74.0,-100.00,East,83,6.0,15.0,74,0.00,,,0.24,0.000000,,2013-07-31 06:32:00,
2013-07-31 03:02:00,84.0,76.0,-100.00,ENE,67,7.0,14.0,78,0.00,,,0.24,0.000000,,2013-07-31 07:02:00,
2013-07-31 03:12:00,84.0,76.0,-100.00,ENE,67,7.0,14.0,78,0.00,,,0.24,0.000000,,2013-07-31 07:12:00,
2013-07-31 03:22:00,84.0,76.0,-100.00,ENE,67,7.0,14.0,78,0.00,,,0.24,0.000000,,2013-07-31 07:22:00,
2013-07-31 03:32:00,84.0,76.0,-100.00,ENE,67,7.0,14.0,78,0.00,,,0.24,0.000000,,2013-07-31 07:32:00,
2013-07-31 04:02:00,83.0,75.0,-100.00,East,83,6.0,15.0,77,0.00,,,0.24,0.000000,,2013-07-31 08:02:00,
2013-07-31 04:12:00,83.0,75.0,-100.00,East,83,6.0,15.0,77,0.00,,,0.24,0.000000,,2013-07-31 08:12:00,
2013-07-31 04:22:00,83.0,75.0,-100.00,East,83,6.0,15.0,77,0.00,,,0.24,0.000000,,2013-07-31 08:22:00,
2013-07-31 04:32:00,83.0,75.0,-100.00,East,83,6.0,15.0,77,0.00,,,0.24,0.000000,,2013-07-31 08:32:00,
2013-07-31 05:02:00,82.0,76.0,-100.00,East,101,6.0,14.0,83,0.00,,,0.24,0.000000,,2013-07-31 09:02:00,
2013-07-31 05:12:00,82.0,76.0,-100.00,East,101,6.0,14.0,83,0.00,,,0.24,0.000000,,2013-07-31 09:12:00,
2013-07-31 05:22:00,82.0,76.0,-100.00,East,101,6.0,14.0,83,0.00,,,0.24,0.000000,,2013-07-31 09:22:00,
2013-07-31 05:32:00,82.0,76.0,-100.00,East,101,6.0,14.0,83,0.00,,,0.24,0.000000,,2013-07-31 09:32:00,
2013-07-31 06:12:00,83.0,74.0,-100.00,ESE,102,6.0,12.0,74,0.00,,,0.24,0.000000,,2013-07-31 10:12:00,
2013-07-31 06:22:00,83.0,74.0,-100.00,ESE,102,6.0,12.0,74,0.00,,,0.24,0.000000,,2013-07-31 10:22:00,
2013-07-31 06:32:00,83.0,74.0,-100.00,ESE,102,6.0,12.0,74,0.00,,,0.24,0.000000,,2013-07-31 10:32:00,
2013-07-31 07:12:00,83.0,75.0,-100.00,ESE,109,6.0,12.0,76,0.00,,,0.24,0.000000,,2013-07-31 11:12:00,
2013-07-31 07:22:00,83.0,75.0,-100.00,ESE,109,6.0,12.0,76,0.00,,,0.24,0.000000,,2013-07-31 11:22:00,
2013-07-31 07:33:00,83.0,75.0,-100.00,ESE,109,6.0,12.0,76,0.00,,,0.24,0.000000,,2013-07-31 11:33:00,
2013-07-31 08:03:00,84.0,74.0,-100.00,ESE,107,5.0,13.0,73,0.00,,,0.24,14.000000,,2013-07-31 12:03:00,
2013-07-31 08:12:00,84.0,74.0,-100.00,ESE,107,5.0,13.0,73,0.00,,,0.24,14.000000,,2013-07-31 12:12:00,
2013-07-31 08:22:00,84.0,74.0,-100.00,ESE,107,5.0,13.0,73,0.00,,,0.24,14.000000,,2013-07-31 12:22:00,
2013-07-31 08:33:00,84.0,74.0,-100.00,ESE,107,5.0,13.0,73,0.00,,,0.24,14.000000,,2013-07-31 12:33:00,
2013-07-31 09:12:00,87.0,76.0,-100.00,East,93,7.0,14.0,69,0.00,,,0.24,178.000000,,2013-07-31 13:12:00,
2013-07-31 09:22:00,87.0,76.0,-100.00,East,93,7.0,14.0,69,0.00,,,0.24,178.000000,,2013-07-31 13:22:00,
2013-07-31 09:33:00,87.0,76.0,-100.00,East,93,7.0,14.0,69,0.00,,,0.24,178.000000,,2013-07-31 13:33:00,
2013-07-31 10:13:00,89.0,76.0,-100.00,ESE,104,6.0,13.0,65,0.00,,,0.24,388.000000,,2013-07-31 14:13:00,
2013-07-31 10:23:00,89.0,76.0,-100.00,ESE,104,6.0,13.0,65,0.00,,,0.24,388.000000,,2013-07-31 14:23:00,
2013-07-31 10:34:00,89.0,76.0,-100.00,ESE,104,6.0,13.0,65,0.00,,,0.24,388.000000,,2013-07-31 14:34:00,
2013-07-31 11:12:00,89.0,74.0,-100.00,ESE,113,7.0,15.0,62,0.00,,,0.19,533.000000,,2013-07-31 15:12:00,
2013-07-31 11:22:00,89.0,74.0,-100.00,ESE,113,7.0,15.0,62,0.00,,,0.19,533.000000,,2013-07-31 15:22:00,
2013-07-31 11:33:00,89.0,74.0,-100.00,ESE,113,7.0,15.0,62,0.00,,,0.19,533.000000,,2013-07-31 15:33:00,
2013-07-31 12:02:00,90.0,74.0,-100.00,ESE,108,7.0,16.0,60,0.00,,,0.19,742.000000,,2013-07-31 16:02:00,
2013-07-31 12:12:00,90.0,74.0,-100.00,ESE,108,7.0,16.0,60,0.00,,,0.19,742.000000,,2013-07-31 16:12:00,
2013-07-31 12:22:00,90.0,74.0,-100.00,ESE,108,7.0,16.0,60,0.00,,,0.19,742.000000,,2013-07-31 16:22:00,
2013-07-31 12:33:00,90.0,74.0,-100.00,ESE,108,7.0,16.0,60,0.00,,,0.19,742.000000,,2013-07-31 16:33:00,
2013-07-31 13:13:00,91.0,74.0,-100.00,East,94,7.0,16.0,58,0.00,,,0.19,818.000000,,2013-07-31 17:13:00,
2013-07-31 13:22:00,91.0,74.0,-100.00,East,94,7.0,16.0,58,0.00,,,0.19,818.000000,,2013-07-31 17:22:00,
2013-07-31 13:33:00,91.0,74.0,-100.00,East,94,7.0,16.0,58,0.00,,,0.19,818.000000,,2013-07-31 17:33:00,
2013-07-31 14:13:00,90.0,74.0,-100.00,East,93,8.0,15.0,60,0.00,,,0.19,741.000000,,2013-07-31 18:13:00,
2013-07-31 14:23:00,90.0,74.0,-100.00,East,93,8.0,15.0,60,0.00,,,0.19,741.000000,,2013-07-31 18:23:00,
2013-07-31 14:33:00,90.0,74.0,-100.00,East,93,8.0,15.0,60,0.00,,,0.19,741.000000,,2013-07-31 18:33:00,
2013-07-31 15:03:00,91.0,74.0,-100.00,East,91,8.0,15.0,57,0.00,,,0.02,869.000000,,2013-07-31 19:03:00,
2013-07-31 15:12:00,91.0,74.0,-100.00,East,91,8.0,15.0,57,0.00,,,0.02,869.000000,,2013-07-31 19:12:00,
2013-07-31 15:22:00,91.0,74.0,-100.00,East,91,8.0,15.0,57,0.00,,,0.02,869.000000,,2013-07-31 19:22:00,
2013-07-31 15:33:00,91.0,74.0,-100.00,East,91,8.0,15.0,57,0.00,,,0.02,869.000000,,2013-07-31 19:33:00,
2013-07-31 16:12:00,89.0,74.0,-100.00,East,97,7.0,15.0,61,0.00,,,0.00,743.000000,,2013-07-31 20:12:00,
2013-07-31 16:23:00,89.0,74.0,-100.00,East,97,7.0,15.0,61,0.00,,,0.00,743.000000,,2013-07-31 20:23:00,
2013-07-31 16:32:00,89.0,74.0,-100.00,East,97,7.0,15.0,61,0.00,,,0.00,743.000000,,2013-07-31 20:32:00,
2013-07-31 17:02:00,89.0,74.0,-100.00,East,89,9.0,17.0,61,0.00,,,0.00,547.000000,,2013-07-31 21:02:00,
2013-07-31 17:13:00,89.0,74.0,-100.00,East,89,9.0,17.0,61,0.00,,,0.00,547.000000,,2013-07-31 21:13:00,
2013-07-31 17:22:00,89.0,74.0,-100.00,East,89,9.0,17.0,61,0.00,,,0.00,547.000000,,2013-07-31 21:22:00,
2013-07-31 17:32:00,89.0,74.0,-100.00,East,89,9.0,17.0,61,0.00,,,0.00,547.000000,,2013-07-31 21:32:00,
2013-07-31 18:02:00,90.0,75.0,-100.00,East,100,9.0,17.0,62,0.00,,,0.00,509.000000,,2013-07-31 22:02:00,
2013-07-31 18:13:00,90.0,75.0,-100.00,East,100,9.0,17.0,62,0.00,,,0.00,509.000000,,2013-07-31 22:13:00,
2013-07-31 18:22:00,90.0,75.0,-100.00,East,100,9.0,17.0,62,0.00,,,0.00,509.000000,,2013-07-31 22:22:00,
2013-07-31 18:33:00,90.0,75.0,-100.00,East,100,9.0,17.0,62,0.00,,,0.00,509.000000,,2013-07-31 22:33:00,
2013-07-31 19:02:00,87.0,74.0,-100.00,East,89,8.0,18.0,66,0.00,,,0.00,266.000000,,2013-07-31 23:02:00,
2013-07-31 19:12:00,87.0,74.0,-100.00,East,89,8.0,18.0,66,0.00,,,0.00,266.000000,,2013-07-31 23:12:00,
2013-07-31 19:22:00,87.0,74.0,-100.00,East,89,8.0,18.0,66,0.00,,,0.00,266.000000,,2013-07-31 23:22:00,
2013-07-31 19:32:00,87.0,74.0,-100.00,East,89,8.0,18.0,66,0.00,,,0.00,266.000000,,2013-07-31 23:32:00,
2013-07-31 20:03:00,85.0,73.0,-100.00,East,86,8.0,16.0,68,0.00,,,0.00,117.000000,,2013-08-01 00:03:00,
2013-07-31 20:12:00,85.0,73.0,-100.00,East,86,8.0,16.0,68,0.00,,,0.00,117.000000,,2013-08-01 00:12:00,
2013-07-31 20:22:00,85.0,73.0,-100.00,East,86,8.0,16.0,68,0.00,,,0.00,117.000000,,2013-08-01 00:22:00,
2013-07-31 20:32:00,85.0,73.0,-100.00,East,86,8.0,16.0,68,0.00,,,0.00,117.000000,,2013-08-01 00:32:00,
2013-07-31 21:03:00,85.0,74.0,-100.00,East,92,7.0,14.0,70,0.00,,,0.00,5.000000,,2013-08-01 01:03:00,
2013-07-31 21:12:00,85.0,74.0,-100.00,East,92,7.0,14.0,70,0.00,,,0.00,5.000000,,2013-08-01 01:12:00,
2013-07-31 21:22:00,85.0,74.0,-100.00,East,92,7.0,14.0,70,0.00,,,0.00,5.000000,,2013-08-01 01:22:00,
2013-07-31 21:33:00,85.0,74.0,-100.00,East,92,7.0,14.0,70,0.00,,,0.00,5.000000,,2013-08-01 01:33:00,
2013-07-31 22:02:00,84.0,74.0,-100.00,East,92,7.0,15.0,71,0.00,,,0.00,0.000000,,2013-08-01 02:02:00,
2013-07-31 22:12:00,84.0,74.0,-100.00,East,92,7.0,15.0,71,0.00,,,0.00,0.000000,,2013-08-01 02:12:00,
2013-07-31 22:22:00,84.0,74.0,-100.00,East,92,7.0,15.0,71,0.00,,,0.00,0.000000,,2013-08-01 02:22:00,
2013-07-31 22:32:00,84.0,74.0,-100.00,East,92,7.0,15.0,71,0.00,,,0.00,0.000000,,2013-08-01 02:32:00,
2013-07-31 23:02:00,83.0,74.0,-100.00,ESE,105,6.0,17.0,75,0.00,,,0.00,0.000000,,2013-08-01 03:02:00,
2013-07-31 23:12:00,83.0,74.0,-100.00,ESE,105,6.0,17.0,75,0.00,,,0.00,0.000000,,2013-08-01 03:12:00,
2013-07-31 23:22:00,83.0,74.0,-100.00,ESE,105,6.0,17.0,75,0.00,,,0.00,0.000000,,2013-08-01 03:22:00,
2013-07-31 23:32:00,83.0,74.0,-100.00,ESE,105,6.0,17.0,75,0.00,,,0.00,0.000000,,2013-08-01 03:32:00,